Regional Weather Roundup
Issued by NWS Cleveland, OH

Home | Current Version | Previous Version | Text Only | Print | Product List | Glossary Off
Versions: 1 2 3 4 5 6 7 8 9 10 11 12 13 14 15 16 17 18 19 20 21 22 23 24 25 26 27 28 29 30 31 32 33 34 35 36 37 38 39 40 41 42 43 44 45 46 47 48 49 50

732
ASUS41 KCLE 241902
RWRCLE
OHIO REGIONAL WEATHER ROUNDUP
NATIONAL WEATHER SERVICE CLEVELAND, OH
300 PM EDT TUE MAY 24 2016

NOTE: "FAIR" INDICATES FEW OR NO CLOUDS BELOW 12,000 FEET WITH NO
SIGNIFICANT WEATHER AND/OR OBSTRUCTIONS TO VISIBILITY.

OHZ001>008-015>018-024>027-034-035-043-044-242000-
   NORTHWEST OHIO

CITY           SKY/WX    TMP DP  RH WIND       PRES   REMARKS
DEFIANCE       SUNNY     83  46  27 W7        30.04S
FINDLAY        SUNNY     82  43  25 SW5       30.04F
TOLEDO EXPRESS SUNNY     83  42  23 W9        30.02F
TOLEDO EXEC    SUNNY     82  41  23 S7        30.03F
LIMA           SUNNY     79  44  28 SW8       30.06F
$$

OHZ009>014-019>023-028>033-038-089-242000-
   NORTHEAST OHIO

CITY           SKY/WX    TMP DP  RH WIND       PRES   REMARKS
CLE-HOPKINS    SUNNY     81  45  28 W9G18     30.07F
CLE-LAKEFRONT  SUNNY     72  54  53 NW5       30.05F
CUY CO. ARPT   SUNNY     81  46  30 W9        30.08F
LORAIN-ELYRIA  SUNNY     80  42  25 NW7       30.06F
ASHTABULA      SUNNY     78  36  21 W13G22    30.07S
AKRON-CANTON   MOSUNNY   79  47  32 W9        30.08S
WOOSTER        SUNNY     79  47  32 SW15      30.08F
MANSFIELD      SUNNY     79  46  31 SW8G16    30.08F
YOUNGSTOWN     MOSUNNY   79  45  29 W8G17     30.06F
$$

OHZ042-051>053-060>062-070>072-077>081-242000-
  SOUTHWEST OHIO

CITY           SKY/WX    TMP DP  RH WIND       PRES   REMARKS
CINC-COVINGTON MOSUNNY   79  47  32 SE5       30.10F
CINC-LUNKEN    SUNNY     78  52  40 SW10      30.09F
HAMILTON       SUNNY     80  48  32 VRB6      30.09F
DAYTON         PTSUNNY   78  48  34 SW12      30.09F
WRIGHT-PAT AFB NOT AVBL
DAYTON GENERAL SUNNY     78  48  34 S9G17     30.08F
WILMINGTON     SUNNY     77  50  38 S9        30.10F
$$

OHZ036-037-039>041-045>050-054>059-063>069-073>076-082>088-242000-
  CENTRAL AND SOUTHEAST OHIO

CITY           SKY/WX    TMP DP  RH WIND       PRES   REMARKS
COLUMBUS       MOSUNNY   78  51  38 VRB7      30.08F
OSU AIRPORT    SUNNY     80  51  36 SW9       30.07F
BOLTON FIELD   NOT AVBL
RICKENBACK AFB NOT AVBL
NEWARK         MOSUNNY   80  51  36 SW14      30.09F
MARION         SUNNY     79  44  28 W8        30.08F
LANCASTER      SUNNY     77  53  43 SW9       30.10F
ZANESVILLE     MOSUNNY   80  51  36 W10       30.10R
NEW PHILLY     MOSUNNY   81  48  31 NW9       30.08S
$$




USA.gov is the U.S. government's official web portal to all federal, state and local government web resources and services.